La Grande, OR

3:52 PM PDT on October 22, 2019 (GMT -0700)
La Grande-Union County

Weather History for KLGD - August, 2019

Change the Weather History Date:

Saturday, August 31, 2019

  Actual Average Record
Temperature  
Mean Temperature 72 °F -  
Max Temperature 93 °F 78 °F 97 °F (1967)
Min Temperature 54 °F 45 °F 33 °F (2006)
Cooling Degree Days 8    
Growing Degree Days 22 (Base 50)    
Moisture  
Dew Point 52 °F    
Average Humidity 51    
Maximum Humidity 90    
Minimum Humidity 28    
Precipitation  
Precipitation 0.00 in - - ()
Sea Level Pressure  
Sea Level Pressure 30.39 in    
Wind  
Wind Speed 6 mph (NW)    
Max Wind Speed 16 mph    
Max Gust Speed -    
Visibility 10 miles    
Events      
Averages and records for this station are not official NWS values.
T = Trace of Precipitation, MM = Missing Value Source: NWS Daily Summary

Daily Weather History Graph

Daily Weather History Graph

Search for Another Location

Airport or City:

Astronomy

Aug. 31, 2019 Rise Set
Actual Time 6:12 AM PDT 7:31 PM PDT
Civil Twilight 5:41 AM PDT 8:02 PM PDT
Nautical Twilight 5:04 AM PDT 8:38 PM PDT
Astronomical Twilight 4:25 AM PDT 9:17 PM PDT
Moon 7:35 AM PDT (8/31) 8:43 PM PDT (8/31)
Length of Visible Light 14h 20m
Length of Day
13h 19m
Waxing Crescent, 3% of the Moon is Illuminated
Aug 31
Waxing Crescent
Sep 5
First Quarter
Sep 13
Full
Sep 21
Last Quarter
Sep 28
New

Hourly Weather History & Observations

Time (PDT) Temp. Heat Index Dew Point Humidity Pressure Visibility Wind Dir Wind Speed Gust Speed Precip Events Conditions
12:56 AM 66.9 °F - 54.0 °F 63% 30.43 in 10.0 mi NNW 8.1 mph - N/A   Clear
1:56 AM 66.0 °F - 54.0 °F 65% 30.43 in 10.0 mi NW 6.9 mph - N/A   Clear
2:56 AM 63.0 °F - 53.1 °F 70% 30.43 in 10.0 mi NW 3.5 mph - N/A   Clear
3:56 AM 57.0 °F - 51.1 °F 81% 30.43 in 10.0 mi ENE 4.6 mph - N/A   Clear
4:56 AM 57.0 °F - 51.1 °F 81% 30.43 in 10.0 mi SW 4.6 mph - N/A   Clear
5:56 AM 55.0 °F - 51.1 °F 86% 30.43 in 10.0 mi Calm Calm - N/A   Clear
6:56 AM 54.0 °F - 51.1 °F 90% 30.44 in 10.0 mi Calm Calm - N/A   Clear
7:56 AM 63.0 °F - 52.0 °F 67% 30.45 in 10.0 mi North 3.5 mph - N/A   Clear
8:56 AM 66.9 °F - 54.0 °F 63% 30.45 in 10.0 mi Calm Calm - N/A   Clear
9:56 AM 72.0 °F - 54.0 °F 53% 30.43 in 10.0 mi Variable 3.5 mph - N/A   Clear
10:56 AM 77.0 °F - 54.0 °F 45% 30.41 in 10.0 mi NNW 3.5 mph - N/A   Clear
11:56 AM 81.0 °F 80.7 °F 55.0 °F 41% 30.39 in 10.0 mi Variable 4.6 mph - N/A   Clear
12:56 PM 84.9 °F 83.7 °F 55.9 °F 37% 30.37 in 9.0 mi Calm Calm - N/A   Partly Cloudy
1:56 PM 91.0 °F 88.9 °F 55.0 °F 29% 30.34 in 10.0 mi NNW 6.9 mph - N/A   Clear
2:56 PM 90.0 °F 87.5 °F 53.1 °F 28% 30.32 in 10.0 mi WNW 5.8 mph - N/A   Partly Cloudy
3:56 PM 90.0 °F 87.7 °F 54.0 °F 29% 30.31 in 10.0 mi NW 10.4 mph - N/A   Partly Cloudy
4:56 PM 90.0 °F 87.7 °F 54.0 °F 29% 30.31 in 10.0 mi WNW 16.1 mph - N/A   Partly Cloudy
5:56 PM 87.1 °F - 52.0 °F 30% 30.32 in 10.0 mi WNW 16.1 mph - N/A   Clear
6:56 PM 84.0 °F - 51.1 °F 32% 30.32 in 10.0 mi WNW 16.1 mph - N/A   Mostly Cloudy
7:56 PM 80.1 °F - 48.9 °F 34% 30.35 in 10.0 mi WNW 13.8 mph - N/A   Mostly Cloudy
8:56 PM 78.1 °F - 48.0 °F 35% 30.37 in 10.0 mi NW 9.2 mph - N/A   Mostly Cloudy
9:56 PM 75.0 °F - 46.9 °F 37% 30.38 in 10.0 mi North 6.9 mph - N/A   Mostly Cloudy
10:56 PM 73.9 °F - 46.0 °F 37% 30.38 in 10.0 mi WNW 10.4 mph - N/A   Scattered Clouds